1309564833049,3.27772
1309564893049,3.32124
1309564953049,3.29184
1309565013049,3.26527
1309565073049,3.31320
1309565133049,3.31184
1309565193049,3.30714
1309565253049,3.28610
1309565313049,3.29655
1309565373049,3.25524
1309565433049,3.28329
1309565493049,3.28366
1309565553049,3.28656
1309565613049,3.29858
1309565673049,3.28695
1309565733049,3.27717
1309565793049,3.29981
1309565853049,3.25158
1309565913049,3.30550
1309565973049,3.28910
1309566033049,3.29025
1309566093049,3.25221
1309566153049,3.28997
1309566213049,3.28243
1309566273049,3.29311
1309566333049,3.28019
1309566393049,3.29910
1309566453049,3.28608
1309566513049,3.26808
1309566573049,3.27697
1309566633049,3.28091
1309566693049,3.30154
1309566753049,3.25439
1309566813049,3.29728
1309566873049,3.27711
1309566933049,3.29629
1309566993049,3.27077
1309567053049,3.28541
1309567113049,3.29898
1309567173049,3.28513
1309567233049,3.26191
1309567293049,3.27805
1309567353049,3.28942
1309567413049,3.30579
1309567473049,3.30597
1309567533049,3.27989
1309567593049,3.26760
1309567653049,3.28780
1309567713049,3.27361
1309567773049,3.27506
1309567833049,3.25584
1309567893049,3.27649
1309567953049,3.27472
1309568013049,3.28174
1309568073049,3.27367
1309568133049,3.28199
1309568193049,3.29865
1309568253049,3.29075
1309568313049,3.28793
1309568373049,3.25106
1309568433059,3.29693
1309568493059,3.30375
1309568553059,3.28134
1309568613059,3.25863
1309568673059,3.25736
1309568733059,3.27038
1309568793059,3.27297
1309568853059,3.27760
1309568913059,3.27470
1309568973059,3.28059
1309569033059,3.23712
1309569093059,3.26156
1309569153059,3.27223
1309569213059,3.26691
1309569273059,3.27857
1309569333059,3.26024
1309569393059,3.27547
1309569453059,3.28357
1309569513059,3.24574
1309569573059,3.27522
1309569633059,3.26143
1309569693059,3.24879
1309569753059,3.24899
1309569813059,3.26267
1309569873059,3.29323
1309569933059,3.27255
1309569993059,3.28300
1309570053059,3.28945
1309570113059,3.28217
1309570173059,3.26780
1309570233059,3.26941
1309570293059,3.26445
1309570353059,3.28999
1309570413059,3.29342
1309570473059,3.27716
1309570533059,3.26210
1309570593059,3.26379
1309570653059,3.25869
1309570713059,3.28049
1309570773059,3.24098
1309570833059,3.27768
1309570893059,3.28648
1309570953059,3.21880
1309571013059,3.22789
1309571073059,3.25669
1309571133059,3.23302
1309571193059,3.25396
1309571253059,3.21202
1309571313059,3.26239
1309571373059,3.25474
1309571433059,3.24852
1309571493059,3.26244
1309571553059,3.26976
1309571613059,3.26201
1309571673059,3.22949
1309571733059,3.23379
1309571793059,3.25759
1309571853059,3.23783
1309571913059,3.26060
1309571973059,3.25944
1309572033069,3.25820
1309572093069,3.24478
1309572153069,3.24378
1309572213069,3.25670
1309572273069,3.22527
1309572333069,3.26891
1309572393069,3.24422
1309572453069,3.23498
1309572513069,3.24192
1309572573069,3.26910
1309572633069,3.25997
1309572693069,3.25639
1309572753069,3.25268
1309572813069,3.27167
1309572873069,3.25705
1309572933069,3.24367
1309572993069,3.24795
1309573053069,3.26091
1309573113069,3.28673
1309573173069,3.24396
1309573233069,3.24610
1309573293069,3.23547
1309573353069,3.22331
1309573413069,3.22504
1309573473069,3.25517
1309573533069,3.26624
1309573593069,3.25957
1309573653069,3.25738
1309573713069,3.30551
1309573773069,3.25511
1309573833069,3.22541
1309573893069,3.27530
1309573953069,3.28105
1309574013069,3.27371
1309574073069,3.27137
1309574133069,3.26282
1309574193069,3.20119
1309574253069,3.23746
1309574313069,3.28651
1309574373069,3.24987
1309574433069,3.25468
1309574493069,3.25581
1309574553069,3.27379
1309574613069,3.26014
1309574673069,3.25926
1309574733069,3.27601
1309574793069,3.24558
1309574853069,3.27252
1309574913069,3.28356
1309574973069,3.27531
1309575033069,3.26172
1309575093069,3.28033
1309575153069,3.30078
1309575213069,3.30918
1309575273069,3.24201
1309575333069,3.26148
1309575393069,3.25640
1309575453069,3.23429
1309575513069,3.25409
1309575573069,3.24377
1309575633078,3.24126
1309575693078,3.27132
1309575753078,3.25858
1309575813078,3.24494
1309575873078,3.26686
1309575933078,3.32332
1309575993078,3.28967
1309576053078,3.28590
1309576113078,3.27352
1309576173078,3.28849
1309576233078,3.26043
1309576293078,3.34603
1309576353078,3.29014
1309576413078,3.26976
1309576473078,3.30906
1309576533078,3.29447
1309576593078,3.29748
1309576653078,3.29274
1309576713078,3.26982
1309576773078,3.31253
1309576833078,3.32414
1309576893078,3.28158
1309576953078,3.26907
1309577013078,3.26955
1309577073078,3.29224
1309577133078,3.31101
1309577193078,3.31393
1309577253078,3.29178
1309577313078,3.27365
1309577373078,3.29924
1309577433078,3.32012
1309577493078,3.28125
1309577553078,3.26766
1309577613078,3.30266
1309577673078,3.26367
1309577733078,3.29340
1309577793078,3.30967
1309577853078,3.30527
1309577913078,3.27794
1309577973078,3.28926
1309578033078,3.30867
1309578093078,3.26620
1309578153078,3.30415
1309578213078,3.27152
1309578273078,3.27721
1309578333078,3.30193
1309578393078,3.30659
1309578453078,3.27082
1309578513078,3.26446
1309578573078,3.30585
1309578633078,3.28406
1309578693078,3.27001
1309578753078,3.27864
1309578813078,3.30759
1309578873078,3.27918
1309578933078,3.27861
1309578993078,3.31003
1309579053078,3.27955
1309579113078,3.25352
1309579173078,3.25997
1309579233088,3.28300
1309579293088,3.30570
1309579353088,3.27761
1309579413088,3.28220
1309579473088,3.24733
1309579533088,3.28817
1309579593088,3.31767
1309579653088,3.28623
1309579713088,3.30073
1309579773088,3.27295
1309579833088,3.29231
1309579893088,3.29301
1309579953088,3.28774
1309580013088,3.28079
1309580073088,3.27373
1309580133088,3.27131
1309580193088,3.27443
1309580253088,3.30296
1309580313088,3.27060
1309580373088,3.27738
1309580433088,3.27487
1309580493088,3.27244
1309580553088,3.26215
1309580613088,3.26398
1309580673088,3.29386
1309580733088,3.27418
1309580793088,3.26719
1309580853088,3.23052
1309580913088,3.26193
1309580973088,3.27572
1309581033088,3.28042
1309581093088,3.28662
1309581153088,3.25094
1309581213088,3.25530
1309581273088,3.27494
1309581333088,3.26268
1309581393088,3.26461
1309581453088,3.27906
1309581513088,3.25815
1309581573088,3.28251
1309581633088,3.28224
1309581693088,3.27145
1309581753088,3.24088
1309581813088,3.28018
1309581873088,3.23607
1309581933088,3.22752
1309581993088,3.25513
1309582053088,3.24102
1309582113088,3.24035
1309582173088,3.22993
1309582233088,3.23503
1309582293088,3.22790
1309582353088,3.24684
1309582413088,3.23736
1309582473088,3.28266
1309582533088,3.27721
1309582593088,3.23592
1309582653088,3.18324
1309582713088,3.24787
1309582773088,3.23167
1309582833097,3.23441
1309582893097,3.23443
1309582953097,3.25416
1309583013097,3.24888
1309583073097,3.24295
1309583133097,3.26232
1309583193097,3.27726
1309583253097,3.21169
1309583313097,3.23808
1309583373097,3.24320
1309583433097,3.27047
1309583493097,3.22834
1309583553097,3.26782
1309583613097,3.27986
1309583673097,3.28559
1309583733097,3.25922
1309583793097,3.25320
1309583853097,3.25204
1309583913097,3.25732
1309583973097,3.24336
1309584033097,3.23604
1309584093097,3.25694
1309584153097,3.26231
1309584213097,3.25140
1309584273097,3.27085
1309584333097,3.23815
1309584393097,3.35041
1309584453097,3.24551
1309584513097,3.26037
1309584573097,3.28563
1309584633097,3.24190
1309584693097,3.28334
1309584753097,3.30549
1309584813097,3.26039
1309584873097,3.27434
1309584933097,3.25801
1309584993097,3.30971
1309585053097,3.26624
1309585113097,3.25441
1309585173097,3.26445
1309585233097,3.27029
1309585293097,3.27330
1309585353097,3.28036
1309585413097,3.27235
1309585473097,3.28526
1309585533097,3.28593
1309585593097,3.25826
1309585653097,3.27003
1309585713097,3.28102
1309585773097,3.26099
1309585833097,3.27163
1309585893097,3.24124
1309585953097,3.26673
1309586013097,3.25263
1309586073097,3.24859
1309586133097,3.22535
1309586193097,3.27919
1309586253097,3.22868
1309586313097,3.23661
1309586373097,3.25427
1309586433106,3.25145
1309586493106,3.28033
1309586553106,3.31139
1309586613106,3.27793
1309586673106,3.29242
1309586733106,3.24988
1309586793106,3.22039
1309586853106,3.27888
1309586913106,3.22740
1309586973106,3.25553
1309587033106,3.24851
1309587093106,3.26750
1309587153106,3.26079
1309587213106,3.28001
1309587273106,3.29016
1309587333106,3.24579
1309587393106,3.26643
1309587453106,3.30822
1309587513106,3.27061
1309587573106,3.26745
1309587633106,3.27302
1309587693106,3.26458
1309587753106,3.27972
1309587813106,3.27250
1309587873106,3.25931
1309587933106,3.26185
1309587993106,3.25750
1309588053106,3.25368
1309588113106,3.23171
1309588173106,3.27546
1309588233106,3.28363
1309588293106,3.26725
1309588353106,3.26561
1309588413106,3.28272
1309588473106,3.21320
1309588533106,3.22119
1309588593106,3.26741
1309588653106,3.28672
1309588713106,3.28105
1309588773106,3.31017
1309588833106,3.23653
1309588893106,3.26310
1309588953106,3.23528
1309589013106,3.24972
1309589073106,3.26158
1309589133106,3.25664
1309589193106,3.24984
1309589253106,3.27499
1309589313106,3.26970
1309589373106,3.25476
1309589433106,3.27649
1309589493106,3.25078
1309589553106,3.24887
1309589613106,3.26042
1309589673106,3.25152
1309589733106,3.22981
1309589793106,3.24219
1309589853106,3.23190
1309589913106,3.27158
1309589973106,3.28547
1309590033115,3.29212
1309590093115,3.27451
1309590153115,3.24703
1309590213115,3.27445
1309590273115,3.29173
1309590333115,3.26542
1309590393115,3.27654
1309590453115,3.26447
1309590513115,3.22286
1309590573115,3.37399
1309590633115,3.22260
1309590693115,3.29414
1309590753115,3.24773
1309590813115,3.24731
1309590873115,3.27295
1309590933115,3.23626
1309590993115,3.30236
1309591053115,3.23512
1309591113115,3.26252
1309591173115,3.26123
1309591233115,3.25971
1309591293115,3.25557
1309591353115,3.27254
1309591413115,3.30392
1309591473115,3.22954
1309591533115,3.26043
1309591593115,3.25707
1309591653115,3.25627
1309591713115,3.28846
1309591773115,3.22822
1309591833115,3.24029
1309591893115,3.22761
1309591953115,3.26205
1309592013115,3.26368
1309592073115,3.27477
1309592133115,3.25216
1309592193115,3.27537
1309592253115,3.26517
1309592313115,3.25280
1309592373115,3.25928
1309592433115,3.25352
1309592493115,3.24266
1309592553115,3.26350
1309592613115,3.28408
1309592673115,3.22419
1309592733115,3.27276
1309592793115,3.27839
1309592853115,3.24356
1309592913115,3.27574
1309592973115,3.30763
1309593033115,3.28493
1309593093115,3.28695
1309593153115,3.27838
1309593213115,3.24230
1309593273115,3.23641
1309593333115,3.23045
1309593393115,3.30693
1309593453115,3.23327
1309593513115,3.26890
1309593573115,3.26891
1309593633124,3.30317
1309593693124,3.28940
1309593753124,3.23792
1309593813124,3.24127
1309593873124,3.25587
1309593933124,3.24351
1309593993124,3.28592
1309594053124,3.26592
1309594113124,3.25521
1309594173124,3.27663
1309594233124,3.25055
1309594293124,3.28320
1309594353124,3.28702
1309594413124,3.23910
1309594473124,3.28785
1309594533124,3.26698
1309594593124,3.29184
1309594653124,3.26644
1309594713124,3.24788
1309594773124,3.31262
1309594833124,3.28292
1309594893124,3.27479
1309594953124,3.30009
1309595013124,3.25589
1309595073124,3.26568
1309595133124,3.28568
1309595193124,3.25606
1309595253124,3.27369
1309595313124,3.26189
1309595373124,3.29684
1309595433124,3.30098
1309595493124,3.27361
1309595553124,3.26871
1309595613124,3.25370
1309595673124,3.26958
1309595733124,3.28207
1309595793124,3.25687
1309595853124,3.29017
1309595913124,3.26983
1309595973124,3.28487
1309596033124,3.28695
1309596093124,3.27968
1309596153124,3.27543
1309596213124,3.28464
1309596273124,3.27471
1309596333124,3.26007
1309596393124,3.26352
1309596453124,3.27821
1309596513124,3.26388
1309596573124,3.26311
1309596633124,3.32720
1309596693124,3.25458
1309596753124,3.27266
1309596813124,3.30473
1309596873124,3.27425
1309596933124,3.26507
1309596993124,3.27455
1309597053124,3.24788
1309597113124,3.27892
1309597173124,3.24186
1309597233133,3.26224
1309597293133,3.26010
1309597353133,3.28086
1309597413133,3.28417
1309597473133,3.28719
1309597533133,3.28777
1309597593133,3.30073
1309597653133,3.25669
1309597713133,3.26696
1309597773133,3.28107
1309597833133,3.26437
1309597893133,3.27938
1309597953133,3.27063
1309598013133,3.28352
1309598073133,3.25931
1309598133133,3.24120
1309598193133,3.27973
1309598253133,3.28913
1309598313133,3.26064
1309598373133,3.26741
1309598433133,3.28260
1309598493133,3.26605
1309598553133,3.26827
1309598613133,3.28418
1309598673133,3.32111
1309598733133,3.30765
1309598793133,3.31084
1309598853133,3.29587
1309598913133,3.29077
1309598973133,3.27987
1309599033133,3.28605
1309599093133,3.29771
1309599153133,3.29082
1309599213133,3.28363
1309599273133,3.27592
1309599333133,3.27483
1309599393133,3.26457
1309599453133,3.28553
1309599513133,3.29624
1309599573133,3.28810
1309599633133,3.28489
1309599693133,3.27995
1309599753133,3.28927
1309599813133,3.25510
1309599873133,3.29458
1309599933133,3.33086
1309599993133,3.29105
1309600053133,3.27831
1309600113133,3.30766
1309600173133,3.29590
1309600233133,3.26999
1309600293133,3.29247
1309600353133,3.29110
1309600413133,3.29854
1309600473133,3.26592
1309600533133,3.28837
1309600593133,3.30379
1309600653133,3.32196
1309600713133,3.29030
1309600773133,3.27179
1309600833142,3.25865
1309600893142,3.29690
1309600953142,3.28079
1309601013142,3.28712
1309601073142,3.29216
1309601133142,3.26911
1309601193142,3.27169
1309601253142,3.26052
1309601313142,3.27008
1309601373142,3.27426
1309601433142,3.30735
1309601493142,3.24850
1309601553142,3.30202
1309601613142,3.31241
1309601673142,3.31180
1309601733142,3.29722
1309601793142,3.24269
1309601853142,3.24222
1309601913142,3.24844
1309601973142,3.27138
1309602033142,3.24745
1309602093142,3.27508
1309602153142,3.26092
1309602213142,3.26335
1309602273142,3.26905
1309602333142,3.25374
1309602393142,3.28829
1309602453142,3.28425
1309602513142,3.27802
1309602573142,3.26828
1309602633142,3.27568
1309602693142,3.29289
1309602753142,3.27725
1309602813142,3.30127
1309602873142,3.31047
1309602933142,3.31333
1309602993142,3.30108
1309603053142,3.28770
1309603113142,3.26105
1309603173142,3.30182
1309603233142,3.25726
1309603293142,3.28663
1309603353142,3.26309
1309603413142,3.27752
1309603473142,3.25193
1309603533142,3.28222
1309603593142,3.28111
1309603653142,3.26300
1309603713142,3.29528
1309603773142,3.25736
1309603833142,3.23305
1309603893142,3.24199
1309603953142,3.25683
1309604013142,3.26068
1309604073142,3.29758
1309604133142,3.27137
1309604193142,3.26195
1309604253142,3.25577
1309604313142,3.28344
1309604373142,3.25541
1309604433151,3.26871
1309604493151,3.26766
1309604553151,3.29312
1309604613151,3.31478
1309604673151,3.31562
1309604733151,3.27545
1309604793151,3.29198
1309604853151,3.26124
1309604913151,3.25652
1309604973151,3.23934
1309605033151,3.28407
1309605093151,3.27046
1309605633151,3.43100
1309605693151,3.27598
1309605753151,3.27820
1309605813151,3.27476
1309605873151,3.29769
1309605933151,3.29689
1309605993151,3.28769
1309606053151,3.26129
1309606113151,3.28023
1309606173151,3.27767
1309606233151,3.30507
1309606293151,3.27847
1309606353151,3.29736
1309606413151,3.25466
1309606473151,3.26043
1309606533151,3.25506
1309606593151,3.28048
1309606653151,3.32200
1309606713151,3.26668
1309606773151,3.29187
1309606833151,3.26994
1309606893151,3.28345
1309606953151,3.27964
1309607013151,3.31427
1309607073151,3.31420
1309607133151,3.29107
1309607193151,3.28655
1309607253151,3.28733
1309607313151,3.26327
1309607373151,3.22043
1309607433151,3.26807
1309607493151,3.26864
1309607553151,3.26538
1309607613151,3.26664
1309607673151,3.26521
1309607733151,3.27584
1309607793151,3.24012
1309607853151,3.26189
1309607913151,3.25101
1309607973151,3.27664
1309608033160,3.24340
1309608093160,3.25090
1309608153160,3.27077
1309608213160,3.29172
1309608273160,3.30160
1309608333160,3.25544
1309608393160,3.25577
1309608453160,3.24036
1309608513160,3.24088
1309608573160,3.23885
1309608633160,3.23360
1309608693160,3.25970
1309608753160,3.24111
1309608813160,3.25072
1309608873160,3.24165
1309608933160,3.23235
1309608993160,3.24455
1309609053160,3.25874
1309609113160,3.31279
1309609173160,3.29761
1309609233160,3.30359
1309609293160,3.28352
1309609353160,3.32332
1309609413160,3.25758
1309609473160,3.25827
1309609533160,3.28988
1309609593160,3.30260
1309609653160,3.26842
1309609713160,3.28154
1309609773160,3.32081
1309609833160,3.28621
1309609893160,3.27569
1309609953160,3.29604
1309610013160,3.28690
1309610073160,3.29070
1309610133160,3.30469
1309610193160,3.29582
1309610253160,3.28525
1309610313160,3.30838
1309610373160,3.28058
1309610433160,3.31135
1309610493160,3.28647
1309610553160,3.27037
1309610613160,3.29821
1309610673160,3.26227
1309610733160,3.30846
1309610793160,3.29615
1309610853160,3.28962
1309610913160,3.28023
1309610973160,3.26330
1309611033160,3.30867
1309611093160,3.26974
1309611153160,3.27490
1309611213160,3.28452
1309611273160,3.29947
1309611333160,3.29663
1309611393160,3.29199
1309611453160,3.30883
1309611513160,3.33056
1309611573160,3.28933
1309611633169,3.32499
1309611693169,3.30148
1309611753169,3.29460
1309611813169,3.27492
1309611873169,3.32211
1309611933169,3.28079
1309611993169,3.29176
1309612053169,3.31908
1309612113169,3.29482
1309612173169,3.29733
1309612233169,3.28716
1309612293169,3.28589
1309612353169,3.26012
1309612413169,3.31473
1309612473169,3.31899
1309612533169,3.29560
1309612593169,3.28054
1309612653170,3.28573
1309612713170,3.32574
1309612773170,3.30801
1309612833170,3.29152
1309612893169,3.31936
1309612953169,3.31326
1309613013169,3.31032
1309613073169,3.31363
1309613133169,3.29677
1309613193169,3.31703
1309613253169,3.31156
1309613313169,3.33005
1309613373169,3.33279
1309613433169,3.31077
1309613493169,3.29337
1309613553169,3.31156
1309613613169,3.28352
1309613673169,3.34256
1309613733169,3.32704
1309613793169,3.29710
1309613853169,3.29912
1309613913169,3.33094
1309613973170,3.29538
1309614033170,3.29162
1309614093170,3.32875
1309614153170,3.31466
1309614213170,3.31194
1309614273169,3.32775
1309614333169,3.34433
1309614393169,3.33522
1309614453169,3.29926
1309614513169,3.30012
1309614573169,3.29914
1309614633169,3.31740
1309614693169,3.31396
1309614753169,3.30739
1309614813169,3.29822
1309614873169,3.32406
1309614933169,3.32164
1309614993169,3.33709
1309615053169,3.32059
1309615113169,3.32472
1309615173169,3.34490
1309615233179,3.32462
1309615293179,3.31459
1309615353179,3.34154
1309615413179,3.34095
1309615473179,3.34100
1309615533179,3.31274
1309615593179,3.33649
1309615653179,3.33552
1309615713179,3.28701
1309615773179,3.32905
1309615833179,3.33152
1309615893179,3.31920
1309615953179,3.33169
1309616013179,3.32540
1309616073179,3.34708
1309616133179,3.30987
1309616193179,3.32526
1309616253179,3.32195
1309616313179,3.31657
1309616373179,3.32867
1309616433179,3.32747
1309616493179,3.32600
1309616553179,3.31992
1309616613179,3.31343
1309616673179,3.34817
1309616733179,3.33383
1309616793179,3.31099
1309616853179,3.30584
1309616913179,3.35247
1309616973179,3.32687
1309617033179,3.29633
1309617093179,3.31420
1309617153179,3.32036
1309617213179,3.32285
1309617273179,3.33248
1309617333179,3.35266
1309617393179,3.33955
1309617453179,3.34225
1309617513179,3.33078
1309617573179,3.32736
1309617633179,3.34388
1309617693179,3.34688
1309617753179,3.33022
1309617813179,3.30414
1309617873179,3.33115
1309617933179,3.32458
1309617993179,3.31368
1309618053179,3.29183
1309618113179,3.31814
1309618173179,3.31957
1309618233179,3.32947
1309618293179,3.33109
1309618353179,3.33831
1309618413179,3.30422
1309618473179,3.29818
1309618533179,3.35268
1309618593179,3.39321
1309618653179,3.31167
1309618713179,3.32141
1309618773179,3.33185
1309618833188,3.32254
1309618893188,3.32776
1309618953188,3.33776
1309619013188,3.33203
1309619073188,3.31256
1309619133188,3.34019
1309619193188,3.31660
1309619253188,3.29941
1309619313188,3.31282
1309619373188,3.33896
1309619433188,3.33336
1309619493188,3.34949
1309619553188,3.32569
1309619613188,3.32349
1309619673188,3.31854
1309619733188,3.34329
1309619793188,3.32936
1309619853188,3.33170
1309619913188,3.34764
1309619973188,3.30473
1309620033188,3.29950
1309620093188,3.33119
1309620153188,3.32904
1309620213188,3.32567
1309620273188,3.31680
1309620333188,3.30654
1309620393188,3.33013
1309620453188,3.31345
1309620513188,3.31043
1309620573188,3.33945
1309620633188,3.32451
1309620693188,3.34122
1309620753188,3.28218
1309620813188,3.34022
1309620873188,3.34144
1309620933188,3.31961
1309620993188,3.31756
1309621053188,3.33977
1309621113188,3.30356
1309621173188,3.33580
1309621233188,3.32959
1309621293188,3.32488
1309621353188,3.32043
1309621413188,3.30043
1309621473188,3.32099
1309621533188,3.32781
1309621593188,3.33503
1309621653188,3.30992
1309621713188,3.34296
1309621773188,3.33836
1309621833188,3.31550
1309621893188,3.28833
1309621953188,3.29745
1309622013188,3.33539
1309622073188,3.30583
1309622133188,3.33496
1309622193188,3.33138
1309622253188,3.31136
1309622313188,3.31079
1309622373188,3.32201
1309622433198,3.33784
1309622493198,3.32365
1309622553198,3.29669
1309622613198,3.29324
1309622673198,3.29105
1309622733198,3.31344
1309622793198,3.30318
1309622853198,3.29855
1309622913198,3.31906
1309622973198,3.33839
1309623033198,3.28099
1309623093198,3.32800
1309623153198,3.35971
1309623213198,3.32674
1309623273198,3.29560
1309623333198,3.32613
1309623393198,3.31105
1309623453198,3.28830
1309623513198,3.32788
1309623573198,3.31134
1309623633198,3.33378
1309623693198,3.32029
1309623753198,3.28684
1309623813198,3.34130
1309623873198,3.31948
1309623933198,3.32670
1309623993198,3.30470
1309624053198,3.32234
1309624113198,3.32373
1309624173198,3.33221
1309624233198,3.31148
1309624293198,3.29284
1309624353198,3.32176
1309624413198,3.33617
1309624473198,3.36527
1309624533198,3.31235
1309624593198,3.33555
1309624653198,3.32715
1309624713198,3.32130
1309624773198,3.33686
1309624833198,3.34836
1309624893198,3.32107
1309624953198,3.32998
1309625013198,3.32142
1309625073198,3.33084
1309625133198,3.33336
1309625193198,3.33104
1309625253198,3.32541
1309625313198,3.33574
1309625373198,3.31988
1309625433198,3.29033
1309625493198,3.34599
1309625553198,3.33017
1309625613198,3.31146
1309625673198,3.29811
1309625733198,3.33616
1309625793198,3.34909
1309625853198,3.33527
1309625913198,3.33623
1309625973198,3.31633
1309626033208,3.34093
1309626093208,3.32300
1309626153208,3.32434
1309626213208,3.32261
1309626273208,3.35290
1309626333208,3.32300
1309626393208,3.30861
1309626453208,3.35169
1309626513208,3.33717
1309626573208,3.34955
1309626633208,3.32212
1309626693208,3.31649
1309626753208,3.32964
1309626813208,3.32600
1309626873208,3.31775
1309626933208,3.32432
1309626993208,3.33425
1309627053208,3.34663
1309627113208,3.31083
1309627173208,3.32687
1309627233208,3.29829
1309627293208,3.35205
1309627353208,3.35418
1309627413208,3.33123
1309627473208,3.31993
1309627533208,3.30365
1309627593208,3.33750
1309627653208,3.37387
1309627713208,3.35230
1309627773208,3.31927
1309627833208,3.30979
1309627893208,3.31560
1309627953208,3.33103
1309628013208,3.31758
1309628073208,3.34421
1309628133208,3.30372
1309628193208,3.30518
1309628253208,3.32555
1309628313208,3.32636
1309628373208,3.32817
1309628433208,3.31735
1309628493208,3.28940
1309628553208,3.31086
1309628613208,3.31556
1309628673208,3.30808
1309628733208,3.30733
1309628793208,3.34243
1309628853208,3.34250
1309628913208,3.35489
1309628973208,3.30888
1309629033208,3.30215
1309629093208,3.33839
1309629153208,3.32490
1309629213208,3.28193
1309629273208,3.32518
1309629333208,3.31235
1309629393208,3.32961
1309629453208,3.30269
1309629513208,3.34553
1309629573208,3.30517
1309629633218,3.28021
1309629693218,3.30678
1309629753218,3.33490
1309629813218,3.33240
1309629873218,3.31430
1309629933218,3.32836
1309629993218,3.32054
1309630053218,3.31371
1309630113218,3.28959
1309630173218,3.30644
1309630233218,3.29824
1309630293218,3.33200
1309630353218,3.35942
1309630413218,3.31629
1309630473218,3.30261
1309630533218,3.28867
1309630593218,3.28599
1309630653218,3.26977